Regional Weather Roundup
Issued by NWS

Home | Current Version | Previous Version | Text Only | Print | Product List | Glossary On
Versions: 1 2 3 4 5 6 7 8 9 10 11 12 13 14 15 16 17 18 19 20 21 22 23 24 25 26 27 28 29 30 31 32 33 34 35 36 37 38 39 40 41 42 43 44 45 46 47 48 49 50
000
ASUS44 KFWD 250803
RWRTX
NORTH TEXAS HOURLY WEATHER ROUNDUP
NATIONAL WEATHER SERVICE FORT WORTH TX
300 AM CDT WED MAY 25 2016

NOTE: "FAIR" INDICATES FEW OR NO CLOUDS BELOW 12,000 FEET WITH NO
SIGNIFICANT WEATHER AND/OR OBSTRUCTIONS TO VISIBILITY.

TXZ118-119-250900-
DALLAS/FORT WORTH METROPLEX

CITY           SKY/WX    TMP DP  RH WIND       PRES   REMARKS
DFW AIRPORT    CLOUDY    79  70  74 S18G26    29.92R
DALLAS LOVE    MOCLDY    79  71  76 S18       29.92S
FTW MEACHAM    MOCLDY    79  70  74 S17G30    29.90S
DAL-EXECUTIVE  MOCLDY    77  70  79 S13G21    29.93S
FTW-ALLIANCE   MOCLDY    77  71  82 S15G21    29.91R
FTW-NAS-JRB    MOCLDY    78  71  79 S21       29.91S
ARLINGTON      MOCLDY    80  71  74 SE15G23   29.92F
GRAND PRAIRIE  MOCLDY    78  70  76 S12G20    29.93S
ADDISON        CLOUDY    79  73  80 S13G22    29.94S
MESQUITE       CLOUDY    77  73  87 S13       29.95R
LANCASTER      CLOUDY    77  70  79 S9G16     29.95S
$$

TXZ091>094-102>105-117-120-121-131>134-250900-
NORTH CENTRAL TEXAS

CITY           SKY/WX    TMP DP  RH WIND       PRES   REMARKS
SHRMAN/DENISON MOCLDY    74  68  80 S14       29.91S
DECATUR        MOCLDY    77  70  80 S14G20    29.92S
DENTON         LGT RAIN  78  70  76 S15G24    29.91F
MCKINNEY       CLOUDY    78  72  81 S17       29.92F
ROCKWALL       CLOUDY    77  73  88 S12G22    29.92F
TERRELL        CLOUDY    77  72  84 S16       29.95S
WAXAHACHIE     CLOUDY    76  72  89 S9        29.95S
CLEBURNE       MOCLDY    75  75 100 S14       29.95S
GRANBURY       CLOUDY    78  72  80 SE10G16   29.92F
$$

TXZ083>090-098>101-113>116-127>130-139>142-154-155-250900-
WESTERN NORTH TEXAS

CITY           SKY/WX    TMP DP  RH WIND       PRES   REMARKS
WICHITA FALLS  CLOUDY    76  72  87 S18       29.84F
WF-KICKAPOO    CLOUDY    78  72  82 S13       29.87S
VERNON         CLEAR     75  69  81 S15       29.84F
ABILENE        MOCLDY    76  72  87 S18G28    29.90F
ABILENE-DYESS  MOCLDY    75  66  72 S22G29    29.86F
MINERAL WELLS  MOCLDY    77  72  84 S14G22    29.89F
STEPHENVILLE   MOCLDY    74  70  86 S12       29.95F
COMANCHE       MOCLDY    74  74 100 S7        29.94S
BROWNWOOD      CLOUDY    73  72  94 SE10      29.93F
COLEMAN        CLOUDY    75  72  88 S7        29.94S
$$

TXZ143>147-156>162-174-175-250900-
CENTRAL TEXAS

CITY           SKY/WX    TMP DP  RH WIND       PRES   REMARKS
WACO           CLOUDY    76  71  85 S14       29.95S
WACO-MCGREGOR  MOCLDY    75  72  90 S8        29.96S
HILLSBORO      CLOUDY    74  72  91 S14       29.95R
CORSICANA      CLOUDY    78  71  79 S13       29.97S
MEXIA          CLOUDY    76  72  88 S14G20    29.96S
HEARNE         CLOUDY    76  74  91 SE8       29.97S
CAMERON        CLOUDY    76  73  90 S3        29.96S
TEMPLE         CLOUDY    76  73  91 S13       29.95F
KILLEEN        CLOUDY    75  72  90 SE10      29.94F
KILLEEN-SKYLRK CLOUDY    75  72  90 S9        29.96S
HAMILTON       CLOUDY    76  74  96 S13       29.95S
LAMPASAS       CLOUDY    76  73  90 SE8       29.95F
$$

TXZ095>097-106>112-122>126-135>138-148>153-164>167-250900-
EAST TEXAS

CITY           SKY/WX    TMP DP  RH WIND       PRES   REMARKS
PARIS          CLOUDY    77  66  69 S15G24    29.92F
SULPHUR SPRNGS CLOUDY    78  71  79 S12G18    29.96F
MOUNT PLEASANT MOCLDY    76  70  81 S13       29.97F
GILMER         MOCLDY    75  71  85 SE13      29.97F THUNDER
MINEOLA        PTCLDY    79  72  78 S6        29.97S
TYLER          CLOUDY    78  70  76 S13       29.96F
LONGVIEW       MOCLDY    76  71  85 S12       29.98S
MARSHALL       CLOUDY    73  70  89 S3        30.02S
ATHENS         CLOUDY    75  72  88 S8        29.96S
PALESTINE      CLOUDY    77  73  86 SE12      29.98S
JACKSONVILLE   MOCLDY    75  72  90 S13G22    30.01S
CENTER         CLOUDY    78  75  92 S8        29.99F
NACOGDOCHES    CLOUDY    75  72  88 SE9       29.98F
LUFKIN         MOCLDY    76  72  87 SE10      29.99F
$$

SUPPLEMENTAL OBSERVATIONS (CENTRAL)

CITY           SKY/WX    TMP DP  RH WIND       PRES   REMARKS
$$

SUPPLEMENTAL OBSERVATIONS (WEST)

CITY           SKY/WX    TMP DP  RH WIND       PRES   REMARKS
$$

SUPPLEMENTAL OBSERVATIONS (EAST)

CITY           SKY/WX    TMP DP  RH WIND       PRES   REMARKS
$$

SUPPLEMENTAL OBSERVATIONS ARE A COLLECTION OF AUTOMATED INSTRUMENTS
THAT ARE MAINTAINED BY A VARIETY OF FEDERAL AND STATE AGENCIES.
CERTAIN ELEMENTS...SUCH AS HUMIDITY VALUES AND SUSTAINED WIND
SPEEDS...MAY BE APPROXIMATED.





USA.gov is the U.S. government's official web portal to all federal, state and local government web resources and services.